IRIDIUM 37 [P]

Last updated on May 27, 2018, 12:19 a.m. UTC

1 24968U 97056D   18145.92597408  .13759171 -15624-5  28462-3 0  9992
2 24968  86.3531 163.1800 0013823  29.0123 331.5952 16.45904624 83291

Satellite is not in orbit.